EN

Hourly Weather Parhovo

Today, 2 March, Tuesday

Time Temperature Precipitation Wind Pressure Humidity
00:00 -1°C° 0 mm 4 mps 741 mmHg 91%
01:00 -1°C° 0 mm 4 mps 741 mmHg 92%
02:00 -1°C° 0 mm 5 mps 741 mmHg 91%
03:00 -1°C° 0 mm 4 mps 740 mmHg 90%
04:00 -1°C° 0 mm 4 mps 740 mmHg 89%
05:00 -1°C° 0 mm 4 mps 740 mmHg 88%
06:00 -1°C° 0 mm 4 mps 740 mmHg 88%
07:00 -1°C° 0 mm 4 mps 740 mmHg 87%
08:00 -2°C° 0 mm 5 mps 740 mmHg 87%
09:00 -1°C° 0 mm 5 mps 740 mmHg 86%
10:00 -1°C° 0 mm 5 mps 740 mmHg 85%
11:00 -1°C° 0 mm 5 mps 740 mmHg 84%
12:00 -1°C° 0 mm 5 mps 740 mmHg 84%
13:00 -1°C° 0 mm 5 mps 740 mmHg 83%
14:00 -2°C° 0 mm 6 mps 741 mmHg 82%
15:00 -2°C° 0 mm 5 mps 741 mmHg 85%
16:00 -2°C° 0 mm 5 mps 741 mmHg 87%
17:00 -4°C° 0 mm 5 mps 741 mmHg 89%
18:00 -4°C° 0.1 mm 5 mps 742 mmHg 87%
19:00 -5°C° 0.1 mm 5 mps 743 mmHg 85%
20:00 -5°C° 0.1 mm 5 mps 743 mmHg 83%
21:00 -5°C° 0 mm 4 mps 743 mmHg 83%
22:00 -7°C° 0 mm 4 mps 744 mmHg 83%
23:00 -8°C° 0 mm 4 mps 744 mmHg 83%

Tomorrow, 3 March, Wednesday

Time Temperature Precipitation Wind Pressure Humidity
00:00 -8°C° 0 mm 4 mps 745 mmHg 84%
01:00 -8°C° 0 mm 4 mps 745 mmHg 85%
02:00 -8°C° 0 mm 4 mps 746 mmHg 86%
03:00 -7°C° 0 mm 3 mps 745 mmHg 88%
04:00 -7°C° 0 mm 3 mps 745 mmHg 91%
05:00 -7°C° 0 mm 3 mps 745 mmHg 93%
06:00 -7°C° 0 mm 4 mps 745 mmHg 92%
07:00 -5°C° 0 mm 4 mps 745 mmHg 91%
08:00 -4°C° 0 mm 4 mps 745 mmHg 90%
09:00 -4°C° 0 mm 4 mps 745 mmHg 88%
10:00 -3°C° 0 mm 4 mps 744 mmHg 86%
11:00 -4°C° 0 mm 5 mps 744 mmHg 85%
12:00 -4°C° 0 mm 5 mps 744 mmHg 85%
13:00 -4°C° 0 mm 5 mps 743 mmHg 85%
14:00 -4°C° 0 mm 5 mps 743 mmHg 86%
15:00 -4°C° 0 mm 5 mps 742 mmHg 87%
16:00 -4°C° 0 mm 5 mps 742 mmHg 87%
17:00 -4°C° 0 mm 5 mps 741 mmHg 88%
18:00 -4°C° 0 mm 5 mps 740 mmHg 89%
19:00 -4°C° 0 mm 5 mps 740 mmHg 90%
20:00 -4°C° 0 mm 5 mps 739 mmHg 91%
21:00 -3°C° 0.1 mm 4 mps 738 mmHg 93%
22:00 -2°C° 0.1 mm 4 mps 737 mmHg 94%
23:00 -2°C° 0.1 mm 4 mps 736 mmHg 96%

Day after tomorrow, 4 March, Thursday

Time Temperature Precipitation Wind Pressure Humidity
00:00 -2°C° 0.5 mm 4 mps 736 mmHg 96%
01:00 -2°C° 0.5 mm 5 mps 735 mmHg 96%
02:00 -2°C° 0.5 mm 5 mps 734 mmHg 96%
03:00 -2°C° 0.3 mm 5 mps 734 mmHg 94%
04:00 -2°C° 0.3 mm 5 mps 734 mmHg 92%
05:00 -2°C° 0.3 mm 5 mps 733 mmHg 90%
06:00 -4°C° 0.1 mm 5 mps 733 mmHg 88%
07:00 -4°C° 0.1 mm 4 mps 733 mmHg 86%
08:00 -7°C° 0.1 mm 4 mps 734 mmHg 84%
09:00 -5°C° 0 mm 3 mps 734 mmHg 83%
10:00 -5°C° 0 mm 3 mps 734 mmHg 81%
11:00 -4°C° 0 mm 3 mps 733 mmHg 79%
12:00 -4°C° 0 mm 3 mps 734 mmHg 79%
13:00 -4°C° 0 mm 3 mps 734 mmHg 78%
14:00 -4°C° 0 mm 3 mps 734 mmHg 78%
15:00 -4°C° 0 mm 2 mps 734 mmHg 82%
16:00 -5°C° 0 mm 2 mps 734 mmHg 86%
17:00 -6°C° 0 mm 2 mps 734 mmHg 90%
18:00 -7°C° 0 mm 2 mps 734 mmHg 91%
19:00 -8°C° 0 mm 2 mps 735 mmHg 92%
20:00 -7°C° 0 mm 1 mps 735 mmHg 92%
21:00 -8°C° 0 mm 1 mps 735 mmHg 93%
22:00 -8°C° 0 mm 1 mps 735 mmHg 94%
23:00 -9°C° 0 mm 1 mps 736 mmHg 94%

5 March, Friday

Time Temperature Precipitation Wind Pressure Humidity
00:00 -9°C° 0 mm 2 mps 736 mmHg 95%
01:00 -9°C° 0 mm 2 mps 736 mmHg 95%
02:00 -9°C° 0 mm 2 mps 737 mmHg 95%
03:00 -10°C° 0 mm 2 mps 737 mmHg 95%
04:00 -10°C° 0 mm 2 mps 737 mmHg 95%
05:00 -10°C° 0 mm 2 mps 737 mmHg 94%
06:00 -10°C° 0.1 mm 2 mps 738 mmHg 93%
07:00 -9°C° 0.1 mm 2 mps 738 mmHg 92%
08:00 -8°C° 0.1 mm 2 mps 739 mmHg 91%
09:00 -8°C° 0 mm 2 mps 739 mmHg 89%
10:00 -7°C° 0 mm 2 mps 739 mmHg 87%
11:00 -7°C° 0 mm 3 mps 740 mmHg 84%
12:00 -7°C° 0.2 mm 3 mps 740 mmHg 81%
13:00 -7°C° 0.2 mm 3 mps 741 mmHg 78%
14:00 -6°C° 0.2 mm 3 mps 741 mmHg 75%
15:00 -6°C° 0.1 mm 2 mps 741 mmHg 78%
16:00 -7°C° 0.1 mm 2 mps 741 mmHg 82%
17:00 -8°C° 0.1 mm 2 mps 742 mmHg 86%
18:00 -9°C° 0 mm 2 mps 742 mmHg 89%
19:00 -9°C° 0 mm 2 mps 743 mmHg 91%
20:00 -9°C° 0 mm 1 mps 743 mmHg 93%
21:00 -10°C° 0 mm 1 mps 744 mmHg 94%
22:00 -10°C° 0 mm 1 mps 744 mmHg 94%
23:00 -10°C° 0 mm 1 mps 744 mmHg 94%

6 March, Saturday

Time Temperature Precipitation Wind Pressure Humidity
00:00 -11°C° 0 mm 1 mps 744 mmHg 94%
01:00 -12°C° 0 mm 1 mps 745 mmHg 94%
02:00 -13°C° 0 mm 1 mps 745 mmHg 94%
03:00 -13°C° 0 mm 1 mps 745 mmHg 95%
04:00 -13°C° 0 mm 1 mps 745 mmHg 95%
05:00 -14°C° 0 mm 1 mps 745 mmHg 95%
06:00 -15°C° 0 mm 2 mps 745 mmHg 94%
07:00 -15°C° 0 mm 2 mps 745 mmHg 92%
08:00 -15°C° 0 mm 2 mps 745 mmHg 91%
09:00 -13°C° 0 mm 2 mps 745 mmHg 86%
10:00 -12°C° 0 mm 2 mps 746 mmHg 81%
11:00 -10°C° 0 mm 2 mps 746 mmHg 76%
12:00 -9°C° 0 mm 2 mps 745 mmHg 75%
13:00 -9°C° 0 mm 2 mps 745 mmHg 74%
14:00 -8°C° 0 mm 2 mps 744 mmHg 72%
15:00 -9°C° 0 mm 2 mps 744 mmHg 76%
16:00 -9°C° 0 mm 2 mps 743 mmHg 79%
17:00 -10°C° 0 mm 2 mps 742 mmHg 83%
18:00 -12°C° 0 mm 3 mps 741 mmHg 82%
19:00 -12°C° 0 mm 3 mps 740 mmHg 81%
20:00 -11°C° 0 mm 4 mps 740 mmHg 81%
21:00 -12°C° 0.1 mm 5 mps 738 mmHg 84%
22:00 -12°C° 0.1 mm 5 mps 737 mmHg 88%
23:00 -11°C° 0.1 mm 6 mps 735 mmHg 91%

7 March, Sunday

Time Temperature Precipitation Wind Pressure Humidity
00:00 -10°C° 0.4 mm 6 mps 734 mmHg 92%
01:00 -10°C° 0.4 mm 6 mps 732 mmHg 92%
02:00 -9°C° 0.4 mm 6 mps 731 mmHg 93%
03:00 -7°C° 0.2 mm 5 mps 730 mmHg 92%
04:00 -7°C° 0.2 mm 5 mps 729 mmHg 90%
05:00 -7°C° 0.2 mm 5 mps 728 mmHg 89%
06:00 -6°C° 0.2 mm 5 mps 727 mmHg 90%
07:00 -5°C° 0.2 mm 6 mps 725 mmHg 90%
08:00 -6°C° 0.2 mm 7 mps 724 mmHg 90%
09:00 -4°C° 0.6 mm 7 mps 724 mmHg 88%
10:00 -5°C° 0.6 mm 8 mps 723 mmHg 86%
11:00 -4°C° 0.6 mm 8 mps 722 mmHg 84%
12:00 -7°C° 0.2 mm 8 mps 723 mmHg 79%
13:00 -10°C° 0.2 mm 8 mps 723 mmHg 74%
14:00 -12°C° 0.2 mm 8 mps 723 mmHg 68%
15:00 -12°C° 0.1 mm 8 mps 724 mmHg 73%
16:00 -13°C° 0.1 mm 8 mps 725 mmHg 78%
17:00 -15°C° 0.1 mm 8 mps 725 mmHg 83%
18:00 -15°C° 0.2 mm 8 mps 725 mmHg 84%
19:00 -15°C° 0.2 mm 8 mps 725 mmHg 85%
20:00 -15°C° 0.2 mm 8 mps 725 mmHg 86%
21:00 -15°C° 0.1 mm 8 mps 726 mmHg 86%
22:00 -16°C° 0.1 mm 8 mps 726 mmHg 85%
23:00 -15°C° 0.1 mm 7 mps 727 mmHg 84%
Show more

We Need Your Consent

Meteoprog and our Service Providers may store and access personal data such as cookies, device identifiers or other similar technologies on your device and process such data to personalise content and ads, as well as provide social media features and to analyse the traffic.

  • Store and/or access information on your device

    Cookies, device identifiers or other information can be stored or accessed on your device for the purposes indicated above.

  • Personalised ads and content, ad and content measurement, audience insights, and products development

    Ads and content can be personalised based on a profile. More data can be added to better personalise ads and content. Ad and content performance can be measured. Insights about the audience who saw the ads and content can be derived. Such data can be used to develop or improve user’s experience, systems and software.

By clicking ‘I Agree’ you will allow the use of indicated cookies, device identifiers, web beacons or other similar technologies. Your settings can be changed in the browser on your device.

For certain purposes, legitimate interests may be relied on, rather than consent. You can read more about this in our Privacy and Cookie Policy.